Skip Page Navigation
NASA JPL Caltech
NASA Logo - Jet Propulsion Laboratory + View the NASA Portal
+ Near-Earth Object (NEO) Program
Search JPL
JPL Home Earth Solar System Stars & Galaxies Technology
JPL Solar System Dynamics
BODIES ORBITS EPHEMERIDES TOOLS PHYSICAL DATA DISCOVERY FAQ SITE MAP
JPL Small-Body Database Browser
Search: [ help ]  
23734 Kimgyehyun (1998 HK124)
Classification: Main-belt Asteroid          SPK-ID: 2023734
Ephemeris | Orbit Diagram | Orbital Elements | Physical Parameters | Discovery Circumstances ]

[ show orbit diagram ]
Orbital Elements at Epoch 2456400.5 (2013-Apr-18.0) TDB
Reference: MPO253525 (heliocentric ecliptic J2000)
 Element Value Uncertainty (1-sigma)   Units 
e 0.1189039 n/a  
a 2.2148854 n/a AU
q 1.9515269 n/a AU
i 6.20680 n/a deg
node 126.89284 n/a deg
peri 250.90140 n/a deg
M 47.42684 n/a deg
tp 2456241.8839916
(2012-Nov-10.38399160)
n/a JED
period 1203.9967877
3.30
n/a
n/a
d
yr
n 0.29900412 n/a deg/d
Q 2.4782439 n/a AU
  Orbit Determination Parameters
   # obs. used (total)      827  
   first obs. used      1984-??-??  
   last obs. used      2013-02-06  
   # oppositions      12  
   planetary ephem.      DE403  
   condition code      0  
   fit RMS      0.53  
   data source      MPC:mpn  
   producer      MPCLINUX  

Additional Information
 T_jup = 3.637 

Ephemeris | Orbit Diagram | Orbital Elements | Physical Parameters | Discovery Circumstances ]

Physical Parameter Table
Parameter Symbol Value Units Sigma Reference Notes
absolute magnitude H 14.6 mag n/a PDS3 (MPO 11181)  

23734 Kimgyehyun           Discovered 1998 Apr. 23 by the Lincoln Laboratory Near-Earth Asteroid Research Team in Socorro.
Kim Gye Hyun (b. 1988) was awarded second place in the 2007 Intel International Science and Engineering Fair for his materials and bioengineering team project. He attends the Tianjin International School, Tianjin, China.
NOTE: some special characters may not display properly (any characters within {} are an attempt to place the proper accent above a character)
Reference: 20070828/MPCPages.arcLast Updated: 2007-08-30

Alternate Designations
 1998 HK124 = 1984 BD3 
Ephemeris | Orbit Diagram | Orbital Elements | Physical Parameters | Discovery Circumstances ]
ABOUT SSD CREDITS/AWARDS PRIVACY/COPYRIGHT GLOSSARY LINKS
FirstGov 2013-May-23 07:39 UT
(server date/time)  
NASA Home Page
Site Manager:   Donald K. Yeomans
Webmaster  Alan B. Chamberlin